DAL8920 KMDW-KEWR

Flight info

Callsign DAL8920
Flight time 1h 30m
Altitude 35000
Route LEWKE GIJ EVOTE NELLS KEEHO J584 SLT FQM FQM3
Aircraft B739/M-SDE2E3FGHIRWXY/LB1

Departure

Time 2026-04-21 00:40
Airport Chicago Midway International Airport (KMDW)

Arrival

Time 2026-04-21 02:10
Airport Newark Liberty International Airport (KEWR)
Time Latitude Longitude Altitude Speed Heading
2026-04-21 00:24 41.78729 -87.74559 619 ft 0 kts 132°
2026-04-21 00:33 41.78736 -87.74570 633 ft 3 kts 143°
2026-04-21 00:33 41.78739 -87.74573 633 ft 3 kts 142°
2026-04-21 00:33 41.78748 -87.74594 621 ft 3 kts 77°
2026-04-21 00:33 41.78746 -87.74604 627 ft 0 kts 49°
2026-04-21 00:37 41.78775 -87.74588 627 ft 11 kts 13°
2026-04-21 00:37 41.78839 -87.74570 623 ft 10 kts 17°
2026-04-21 00:37 41.78898 -87.74525 618 ft 9 kts 35°
2026-04-21 00:37 41.78947 -87.74471 622 ft 9 kts 45°
2026-04-21 00:38 41.78996 -87.74408 627 ft 10 kts 44°
2026-04-21 00:38 41.79057 -87.74331 627 ft 14 kts 43°
2026-04-21 00:38 41.79089 -87.74290 618 ft 3 kts 43°
2026-04-21 00:38 41.79119 -87.74264 619 ft 9 kts 20°
2026-04-21 00:39 41.79180 -87.74305 614 ft 10 kts 289°
2026-04-21 00:39 41.79142 -87.74381 622 ft 15 kts 224°
2026-04-21 00:39 41.78854 -87.74748 628 ft 99 kts 224°
2026-04-21 00:39 41.78187 -87.75614 726 ft 156 kts 221°
2026-04-21 00:40 41.77435 -87.76640 1680 ft 154 kts 223°
2026-04-21 00:40 41.76561 -87.77519 2298 ft 176 kts 194°
2026-04-21 00:40 41.75267 -87.77242 2679 ft 215 kts 151°
2026-04-21 00:40 41.74100 -87.75794 3425 ft 238 kts 132°
2026-04-21 00:41 41.73342 -87.73754 4363 ft 256 kts 103°
2026-04-21 00:41 41.73293 -87.71312 5314 ft 267 kts 86°
2026-04-21 00:41 41.73430 -87.68772 6216 ft 281 kts 82°
2026-04-21 00:41 41.73560 -87.66649 7081 ft 286 kts 81°
2026-04-21 00:42 41.73650 -87.65144 7751 ft 287 kts 81°
2026-04-21 00:42 41.73804 -87.62452 8846 ft 294 kts 80°
2026-04-21 00:42 41.73951 -87.59689 9931 ft 299 kts 80°
2026-04-21 00:42 41.74090 -87.56919 10877 ft 305 kts 80°
2026-04-21 00:43 41.74226 -87.54052 11851 ft 310 kts 80°
2026-04-21 00:43 41.74358 -87.51141 12808 ft 314 kts 80°
2026-04-21 00:43 41.74488 -87.48201 13739 ft 319 kts 79°
2026-04-21 00:43 41.74618 -87.45207 14570 ft 324 kts 79°
2026-04-21 00:44 41.74747 -87.42175 15383 ft 328 kts 79°
2026-04-21 00:44 41.74875 -87.39145 16154 ft 332 kts 79°
2026-04-21 00:44 41.75007 -87.36011 16841 ft 341 kts 79°
2026-04-21 00:45 41.75302 -87.29214 17261 ft 389 kts 80°
2026-04-21 00:45 41.75456 -87.25530 17452 ft 411 kts 81°
2026-04-21 00:45 41.75612 -87.21615 17692 ft 430 kts 81°
2026-04-21 00:45 41.75763 -87.17614 18636 ft 427 kts 81°
2026-04-21 00:46 41.75910 -87.13683 19497 ft 424 kts 81°
2026-04-21 00:46 41.76063 -87.09736 20372 ft 421 kts 80°
2026-04-21 00:46 41.76215 -87.05826 21202 ft 418 kts 79°
2026-04-21 00:46 41.76318 -87.01914 21972 ft 419 kts 81°
2026-04-21 00:47 41.76364 -86.98003 22695 ft 420 kts 81°
2026-04-21 00:47 41.76390 -86.94129 23480 ft 418 kts 81°
2026-04-21 00:47 41.76411 -86.90267 24302 ft 411 kts 81°
2026-04-21 00:47 41.76437 -86.86443 24954 ft 409 kts 80°
2026-04-21 00:48 41.76471 -86.82672 25474 ft 409 kts 80°
2026-04-21 00:48 41.76509 -86.78859 26011 ft 409 kts 80°
2026-04-21 00:48 41.76538 -86.75046 26544 ft 410 kts 80°
2026-04-21 00:48 41.76547 -86.71202 26869 ft 416 kts 81°
2026-04-21 00:49 41.76526 -86.67331 26960 ft 427 kts 81°
2026-04-21 00:49 41.76564 -86.63297 26973 ft 436 kts 79°
2026-04-21 00:49 41.76648 -86.59232 27076 ft 445 kts 80°
2026-04-21 00:49 41.76724 -86.55043 27220 ft 454 kts 80°
2026-04-21 00:50 41.76778 -86.50762 27305 ft 463 kts 81°
2026-04-21 00:50 41.76815 -86.46401 27384 ft 472 kts 81°
2026-04-21 00:50 41.76843 -86.41968 27458 ft 480 kts 81°
2026-04-21 00:50 41.76870 -86.37509 27525 ft 487 kts 82°
2026-04-21 00:51 41.76921 -86.32938 27623 ft 491 kts 79°
2026-04-21 00:51 41.77340 -86.28425 27826 ft 483 kts 69°
2026-04-21 00:51 41.78097 -86.24061 28226 ft 479 kts 68°
2026-04-21 00:51 41.78881 -86.19724 28722 ft 476 kts 68°
2026-04-21 00:52 41.79650 -86.15464 29261 ft 473 kts 67°
2026-04-21 00:52 41.80411 -86.11174 29759 ft 471 kts 68°
2026-04-21 00:52 41.81158 -86.06891 30162 ft 471 kts 68°
2026-04-21 00:52 41.81889 -86.02637 30493 ft 471 kts 68°
2026-04-21 00:53 41.82620 -85.98345 30817 ft 470 kts 68°
2026-04-21 00:53 41.83343 -85.94061 31186 ft 468 kts 68°
2026-04-21 00:53 41.84060 -85.89801 31526 ft 468 kts 68°
2026-04-21 00:53 41.84766 -85.85596 31813 ft 468 kts 68°
2026-04-21 00:54 41.85480 -85.81340 32111 ft 467 kts 68°
2026-04-21 00:54 41.86193 -85.77083 32441 ft 466 kts 68°
2026-04-21 00:54 41.86901 -85.72837 32751 ft 465 kts 68°
2026-04-21 00:54 41.87606 -85.68609 33019 ft 464 kts 68°
2026-04-21 00:55 41.88312 -85.64368 33284 ft 464 kts 68°
2026-04-21 00:55 41.89003 -85.60197 33567 ft 463 kts 68°
2026-04-21 00:55 41.89703 -85.55966 33848 ft 462 kts 68°
2026-04-21 00:55 41.90399 -85.51750 34134 ft 462 kts 69°
2026-04-21 00:56 41.91094 -85.47527 34404 ft 461 kts 69°
2026-04-21 00:56 41.91785 -85.43326 34605 ft 461 kts 69°
2026-04-21 00:56 41.92474 -85.39121 34821 ft 461 kts 69°
2026-04-21 00:56 41.93154 -85.34964 35028 ft 460 kts 69°
2026-04-21 00:57 41.93842 -85.30749 35194 ft 461 kts 69°
2026-04-21 00:57 41.94533 -85.26505 35289 ft 463 kts 69°
2026-04-21 00:57 41.95245 -85.17834 35305 ft 477 kts 82°
2026-04-21 00:58 41.95165 -85.08884 35297 ft 478 kts 83°
2026-04-21 00:58 41.95057 -84.99964 35302 ft 477 kts 82°
2026-04-21 00:59 41.94993 -84.91068 35304 ft 476 kts 82°
2026-04-21 00:59 41.94949 -84.82230 35311 ft 475 kts 82°
2026-04-21 01:00 41.94903 -84.73354 35306 ft 474 kts 82°
2026-04-21 01:00 41.94848 -84.64473 35322 ft 475 kts 82°
2026-04-21 01:01 41.94786 -84.55639 35306 ft 475 kts 82°
2026-04-21 01:01 41.94728 -84.48231 35293 ft 476 kts 82°
2026-04-21 01:02 41.94652 -84.39332 35307 ft 476 kts 82°
2026-04-21 01:02 41.94568 -84.30433 35339 ft 476 kts 82°
2026-04-21 01:03 41.94479 -84.21523 35332 ft 477 kts 82°
2026-04-21 01:03 41.94381 -84.12596 35324 ft 477 kts 83°
2026-04-21 01:04 41.94278 -84.03726 35323 ft 478 kts 83°
2026-04-21 01:04 41.94166 -83.94802 35324 ft 478 kts 83°
2026-04-21 01:05 41.94049 -83.85846 35345 ft 478 kts 83°
2026-04-21 01:05 41.93924 -83.76960 35351 ft 478 kts 83°
2026-04-21 01:06 41.93792 -83.68008 35339 ft 478 kts 83°
2026-04-21 01:06 41.93655 -83.59119 35341 ft 478 kts 83°
2026-04-21 01:07 41.93510 -83.50185 35368 ft 478 kts 83°
2026-04-21 01:07 41.93431 -83.41240 35348 ft 477 kts 82°
2026-04-21 01:08 41.93413 -83.32376 35339 ft 476 kts 82°
2026-04-21 01:08 41.93387 -83.23458 35347 ft 476 kts 82°
2026-04-21 01:09 41.93341 -83.14602 35385 ft 476 kts 82°
2026-04-21 01:09 41.93285 -83.05681 35358 ft 477 kts 82°
2026-04-21 01:10 41.93220 -82.96816 35357 ft 477 kts 82°
2026-04-21 01:10 41.93149 -82.87867 35366 ft 477 kts 82°
2026-04-21 01:11 41.93071 -82.78978 35378 ft 478 kts 82°
2026-04-21 01:11 41.92987 -82.70073 35405 ft 479 kts 82°
2026-04-21 01:12 41.92895 -82.61106 35393 ft 480 kts 82°
2026-04-21 01:12 41.92796 -82.52159 35389 ft 480 kts 83°
2026-04-21 01:13 41.92690 -82.43175 35391 ft 481 kts 83°
2026-04-21 01:13 41.92576 -82.34173 35398 ft 482 kts 83°
2026-04-21 01:14 41.92456 -82.25207 35397 ft 483 kts 83°
2026-04-21 01:14 41.92328 -82.16176 35393 ft 483 kts 83°
2026-04-21 01:15 41.92194 -82.07189 35400 ft 483 kts 83°
2026-04-21 01:15 41.92051 -81.98134 35403 ft 484 kts 83°
2026-04-21 01:16 41.91904 -81.89136 35402 ft 484 kts 83°
2026-04-21 01:16 41.91652 -81.80080 35399 ft 487 kts 87°
2026-04-21 01:17 41.90868 -81.70999 35406 ft 489 kts 90°
2026-04-21 01:17 41.89967 -81.61950 35421 ft 488 kts 90°
2026-04-21 01:18 41.89115 -81.52958 35399 ft 487 kts 89°
2026-04-21 01:18 41.88291 -81.43922 35395 ft 486 kts 89°
2026-04-21 01:19 41.87472 -81.34914 35396 ft 486 kts 89°
2026-04-21 01:19 41.86650 -81.25963 35418 ft 486 kts 90°
2026-04-21 01:20 41.85811 -81.16941 35409 ft 486 kts 90°
2026-04-21 01:20 41.84967 -81.07952 35403 ft 486 kts 90°
2026-04-21 01:21 41.84115 -80.98943 35406 ft 486 kts 90°
2026-04-21 01:21 41.83259 -80.89968 35429 ft 487 kts 90°
2026-04-21 01:22 41.82389 -80.80920 35396 ft 489 kts 90°
2026-04-21 01:22 41.81514 -80.71909 35384 ft 490 kts 90°
2026-04-21 01:23 41.80626 -80.62826 35388 ft 491 kts 90°
2026-04-21 01:23 41.79731 -80.53760 35429 ft 492 kts 91°
2026-04-21 01:24 41.78819 -80.44652 35405 ft 493 kts 91°
2026-04-21 01:24 41.77901 -80.35550 35388 ft 493 kts 91°
2026-04-21 01:25 41.76977 -80.26450 35373 ft 492 kts 91°
2026-04-21 01:25 41.76051 -80.17408 35377 ft 492 kts 91°
2026-04-21 01:26 41.75113 -80.08306 35390 ft 492 kts 91°
2026-04-21 01:26 41.74174 -79.99270 35384 ft 491 kts 91°
2026-04-21 01:27 41.73224 -79.90204 35400 ft 490 kts 91°
2026-04-21 01:27 41.72274 -79.81202 35404 ft 490 kts 91°
2026-04-21 01:28 41.71311 -79.72152 35422 ft 490 kts 91°
2026-04-21 01:28 41.70348 -79.63160 35413 ft 490 kts 91°
2026-04-21 01:29 41.69372 -79.54126 35406 ft 489 kts 91°
2026-04-21 01:29 41.68390 -79.45104 35408 ft 490 kts 91°
2026-04-21 01:30 41.67406 -79.36119 35416 ft 491 kts 92°
2026-04-21 01:30 41.66406 -79.27049 35410 ft 491 kts 92°
2026-04-21 01:31 41.65404 -79.18042 35406 ft 492 kts 92°
2026-04-21 01:31 41.64393 -79.08992 35398 ft 491 kts 92°
2026-04-21 01:32 41.63377 -78.99945 35408 ft 492 kts 92°
2026-04-21 01:32 41.62360 -78.90945 35399 ft 492 kts 92°
2026-04-21 01:33 41.61327 -78.81876 35389 ft 492 kts 92°
2026-04-21 01:33 41.60297 -78.72900 35348 ft 491 kts 92°
2026-04-21 01:34 41.59253 -78.63870 35355 ft 490 kts 92°
2026-04-21 01:34 41.58205 -78.54859 35357 ft 489 kts 92°
2026-04-21 01:35 41.57157 -78.45921 35357 ft 489 kts 92°
2026-04-21 01:35 41.56098 -78.36935 35366 ft 489 kts 92°
2026-04-21 01:36 41.55032 -78.27963 35383 ft 488 kts 92°
2026-04-21 01:36 41.53959 -78.18991 35390 ft 489 kts 92°
2026-04-21 01:37 41.52886 -78.10073 35381 ft 489 kts 92°
2026-04-21 01:37 41.51798 -78.01089 35388 ft 490 kts 92°
2026-04-21 01:38 41.50668 -77.92153 35396 ft 492 kts 94°
2026-04-21 01:38 41.49390 -77.83165 35389 ft 494 kts 95°
2026-04-21 01:39 41.48083 -77.74160 35380 ft 494 kts 95°
2026-04-21 01:39 41.46785 -77.65136 35377 ft 494 kts 94°
2026-04-21 01:40 41.45498 -77.56168 35394 ft 497 kts 95°
2026-04-21 01:40 41.44844 -77.51591 34988 ft 507 kts 94°
2026-04-21 01:40 41.44176 -77.46924 34445 ft 511 kts 94°
2026-04-21 01:41 41.43502 -77.42279 33781 ft 509 kts 94°
2026-04-21 01:41 41.42826 -77.37668 33095 ft 502 kts 94°
2026-04-21 01:41 41.42166 -77.33183 32451 ft 496 kts 94°
2026-04-21 01:41 41.41505 -77.28683 31810 ft 494 kts 93°
2026-04-21 01:42 41.40846 -77.24175 31208 ft 496 kts 93°
2026-04-21 01:42 41.40185 -77.19668 30630 ft 493 kts 92°
2026-04-21 01:42 41.39526 -77.15194 29933 ft 490 kts 92°
2026-04-21 01:42 41.38868 -77.10747 29238 ft 488 kts 93°
2026-04-21 01:43 41.38212 -77.06312 28539 ft 489 kts 93°
2026-04-21 01:43 41.37559 -77.01891 27886 ft 493 kts 93°
2026-04-21 01:43 41.36889 -76.97380 27220 ft 497 kts 93°
2026-04-21 01:43 41.36211 -76.92849 26578 ft 498 kts 94°
2026-04-21 01:44 41.35528 -76.88316 25927 ft 497 kts 94°
2026-04-21 01:44 41.34857 -76.83865 25386 ft 496 kts 93°
2026-04-21 01:44 41.34182 -76.79394 24766 ft 488 kts 94°
2026-04-21 01:44 41.33379 -76.75016 24153 ft 486 kts 100°
2026-04-21 01:45 41.32279 -76.70746 23489 ft 483 kts 103°
2026-04-21 01:45 41.31111 -76.66567 22800 ft 481 kts 104°
2026-04-21 01:45 41.29944 -76.62453 22131 ft 478 kts 103°
2026-04-21 01:45 41.28787 -76.58322 21465 ft 474 kts 103°
2026-04-21 01:46 41.27655 -76.54212 20825 ft 471 kts 103°
2026-04-21 01:46 41.26545 -76.50125 20237 ft 467 kts 103°
2026-04-21 01:46 41.25459 -76.46099 19620 ft 463 kts 103°
2026-04-21 01:46 41.24375 -76.42075 19010 ft 460 kts 103°
2026-04-21 01:47 41.23313 -76.38141 18549 ft 452 kts 103°
2026-04-21 01:47 41.22249 -76.34203 18423 ft 451 kts 103°
2026-04-21 01:47 41.21181 -76.30256 18369 ft 451 kts 103°
2026-04-21 01:47 41.20117 -76.26337 18369 ft 450 kts 103°
2026-04-21 01:48 41.19063 -76.22464 18360 ft 451 kts 103°
2026-04-21 01:48 41.18355 -76.19866 18360 ft 451 kts 103°
2026-04-21 01:48 41.16933 -76.14651 18365 ft 451 kts 103°
2026-04-21 01:48 41.16213 -76.12003 18388 ft 450 kts 105°
2026-04-21 01:49 41.15155 -76.08132 18364 ft 449 kts 105°
2026-04-21 01:49 41.14087 -76.04237 18355 ft 447 kts 105°
2026-04-21 01:49 41.13022 -76.00358 18365 ft 446 kts 105°
2026-04-21 01:49 41.11960 -75.96497 18356 ft 445 kts 105°
2026-04-21 01:50 41.10901 -75.92650 18369 ft 444 kts 105°
2026-04-21 01:50 41.09841 -75.88802 18365 ft 443 kts 105°
2026-04-21 01:50 41.08793 -75.85000 18371 ft 443 kts 105°
2026-04-21 01:50 41.07731 -75.81157 18369 ft 444 kts 105°
2026-04-21 01:51 41.06668 -75.77310 18385 ft 444 kts 106°
2026-04-21 01:51 41.05604 -75.73466 18352 ft 443 kts 107°
2026-04-21 01:51 41.04540 -75.69636 18337 ft 442 kts 107°
2026-04-21 01:51 41.03489 -75.65857 18331 ft 441 kts 107°
2026-04-21 01:52 41.02428 -75.62043 18316 ft 441 kts 107°
2026-04-21 01:52 41.00305 -75.54434 18320 ft 439 kts 107°
2026-04-21 01:52 40.99245 -75.50645 18318 ft 439 kts 107°
2026-04-21 01:53 40.98182 -75.46849 18304 ft 439 kts 107°
2026-04-21 01:53 40.97118 -75.43053 18317 ft 439 kts 107°
2026-04-21 01:53 40.96066 -75.39310 18328 ft 439 kts 108°
2026-04-21 01:53 40.95002 -75.35525 18324 ft 439 kts 108°
2026-04-21 01:54 40.93936 -75.31734 18318 ft 438 kts 108°
2026-04-21 01:54 40.92879 -75.27983 18095 ft 426 kts 108°
2026-04-21 01:54 40.91862 -75.24386 17967 ft 406 kts 108°
2026-04-21 01:54 40.90907 -75.21012 17837 ft 388 kts 108°
2026-04-21 01:55 40.89977 -75.17721 17522 ft 376 kts 108°
2026-04-21 01:55 40.89063 -75.14490 16940 ft 372 kts 108°
2026-04-21 01:55 40.88157 -75.11292 16338 ft 370 kts 108°
2026-04-21 01:55 40.87261 -75.08124 15936 ft 360 kts 108°
2026-04-21 01:56 40.86419 -75.05146 15833 ft 341 kts 109°
2026-04-21 01:56 40.85607 -75.02269 15605 ft 329 kts 109°
2026-04-21 01:56 40.84815 -74.99458 15138 ft 325 kts 109°
2026-04-21 01:56 40.84024 -74.96659 14608 ft 324 kts 109°
2026-04-21 01:57 40.83240 -74.93891 14121 ft 321 kts 110°
2026-04-21 01:57 40.82417 -74.91165 13598 ft 318 kts 118°
2026-04-21 01:57 40.81113 -74.88840 13055 ft 314 kts 132°
2026-04-21 01:57 40.79664 -74.86693 12547 ft 311 kts 131°
2026-04-21 01:58 40.78247 -74.84583 12039 ft 309 kts 131°
2026-04-21 01:58 40.76821 -74.82459 11554 ft 306 kts 131°
2026-04-21 01:58 40.75406 -74.80345 11108 ft 302 kts 131°
2026-04-21 01:58 40.74063 -74.78330 10835 ft 292 kts 131°
2026-04-21 01:59 40.72722 -74.76318 10394 ft 290 kts 131°
2026-04-21 01:59 40.71379 -74.74325 9897 ft 289 kts 131°
2026-04-21 01:59 40.70067 -74.72368 9432 ft 286 kts 131°
2026-04-21 01:59 40.68754 -74.70401 8992 ft 283 kts 131°
2026-04-21 02:00 40.67458 -74.68455 8516 ft 281 kts 131°
2026-04-21 02:00 40.66172 -74.66524 8151 ft 277 kts 131°
2026-04-21 02:00 40.64906 -74.64623 7826 ft 275 kts 131°
2026-04-21 02:00 40.63638 -74.62720 7529 ft 276 kts 131°
2026-04-21 02:01 40.62413 -74.60883 7262 ft 264 kts 131°
2026-04-21 02:01 40.61232 -74.59113 6954 ft 251 kts 131°
2026-04-21 02:01 40.60103 -74.57423 6652 ft 240 kts 131°
2026-04-21 02:01 40.59012 -74.55790 6389 ft 235 kts 130°
2026-04-21 02:02 40.57937 -74.54181 6131 ft 234 kts 130°
2026-04-21 02:02 40.56865 -74.52578 5884 ft 232 kts 130°
2026-04-21 02:02 40.55795 -74.50978 5613 ft 232 kts 130°
2026-04-21 02:02 40.54726 -74.49379 5363 ft 233 kts 129°
2026-04-21 02:03 40.53664 -74.47794 5108 ft 232 kts 129°
2026-04-21 02:03 40.52596 -74.46200 4852 ft 232 kts 129°
2026-04-21 02:03 40.51527 -74.44606 4601 ft 231 kts 129°
2026-04-21 02:03 40.50463 -74.43021 4359 ft 232 kts 129°
2026-04-21 02:04 40.49415 -74.41417 4117 ft 233 kts 122°
2026-04-21 02:04 40.48917 -74.39470 3876 ft 221 kts 83°
2026-04-21 02:04 40.49180 -74.37507 3766 ft 218 kts 70°
2026-04-21 02:04 40.49614 -74.35623 3571 ft 216 kts 68°
2026-04-21 02:05 40.50057 -74.33752 3363 ft 212 kts 68°
2026-04-21 02:05 40.50484 -74.31919 3184 ft 208 kts 68°
2026-04-21 02:05 40.50903 -74.30103 3005 ft 207 kts 68°
2026-04-21 02:05 40.51386 -74.28336 2854 ft 202 kts 53°
2026-04-21 02:06 40.52412 -74.27188 2857 ft 194 kts 23°
2026-04-21 02:06 40.53648 -74.26423 2850 ft 196 kts 24°
2026-04-21 02:06 40.54828 -74.25654 2817 ft 186 kts 23°
2026-04-21 02:06 40.55958 -74.24929 2703 ft 177 kts 22°
2026-04-21 02:07 40.57055 -74.24231 2490 ft 174 kts 22°
2026-04-21 02:07 40.58143 -74.23539 2241 ft 172 kts 22°
2026-04-21 02:07 40.59188 -74.22873 1994 ft 161 kts 22°
2026-04-21 02:07 40.60185 -74.22239 1816 ft 158 kts 22°
2026-04-21 02:08 40.61174 -74.21610 1588 ft 157 kts 22°
2026-04-21 02:08 40.62159 -74.20984 1369 ft 158 kts 21°
2026-04-21 02:08 40.63138 -74.20348 1102 ft 159 kts 22°
2026-04-21 02:08 40.64145 -74.19705 849 ft 159 kts 22°
2026-04-21 02:09 40.65129 -74.19086 653 ft 157 kts 22°
2026-04-21 02:09 40.66066 -74.18508 472 ft 140 kts 22°
2026-04-21 02:09 40.66919 -74.17953 244 ft 136 kts 22°
2026-04-21 02:09 40.67776 -74.17407 84 ft 137 kts 22°
2026-04-21 02:10 40.68599 -74.16886 21 ft 118 kts 21°
2026-04-21 02:10 40.69133 -74.16551 24 ft 26 kts 26°
2026-04-21 02:10 40.69292 -74.16466 24 ft 20 kts 16°
2026-04-21 02:10 40.69401 -74.16452 25 ft 7 kts 355°
2026-04-21 02:11 40.69459 -74.16455 25 ft 10 kts 355°
2026-04-21 02:11 40.69536 -74.16465 20 ft 13 kts 357°
2026-04-21 02:11 40.69634 -74.16453 17 ft 15 kts 25°
2026-04-21 02:11 40.69717 -74.16401 17 ft 11 kts 25°
2026-04-21 02:12 40.69788 -74.16355 17 ft 12 kts 25°
2026-04-21 02:12 40.69842 -74.16341 16 ft 6 kts 329°
2026-04-21 02:12 40.69868 -74.16393 16 ft 9 kts 296°
2026-04-21 02:12 40.69900 -74.16497 14 ft 13 kts 285°
2026-04-21 02:13 40.69901 -74.16584 15 ft 9 kts 246°
2026-04-21 02:13 40.69829 -74.16652 14 ft 13 kts 220°
2026-04-21 02:13 40.69782 -74.16757 16 ft 13 kts 246°
2026-04-21 02:13 40.69720 -74.16838 18 ft 13 kts 204°
2026-04-21 02:14 40.69634 -74.16893 18 ft 15 kts 205°
2026-04-21 02:14 40.69557 -74.16943 19 ft 12 kts 212°
2026-04-21 02:14 40.69528 -74.17038 18 ft 10 kts 262°
2026-04-21 02:14 40.69573 -74.17095 19 ft 10 kts 338°
2026-04-21 02:15 40.69636 -74.17127 21 ft 10 kts 338°
2026-04-21 02:15 40.69697 -74.17170 20 ft 11 kts 327°
2026-04-21 02:15 40.69759 -74.17230 20 ft 11 kts 319°
2026-04-21 02:15 40.69797 -74.17276 21 ft 7 kts 315°
2026-04-21 02:16 40.69832 -74.17327 21 ft 8 kts 308°
2026-04-21 02:16 40.69845 -74.17395 21 ft 7 kts 248°
2026-04-21 02:16 40.69847 -74.17454 22 ft 4 kts 261°
2026-04-21 02:16 40.69837 -74.17464 20 ft 2 kts 210°
2026-04-21 02:17 40.69821 -74.17470 20 ft 0 kts 191°